DEBRISSAT-1 (43621 NORAD) Tracking and Keplerian Element Data

This shows tracking and keplerian element data for the satellite.

Feedback or suggestion? Click here.




ElementValue
Catalog43621
NameDEBRISSAT-1
Epoch Orbit914
Epoch Day318.54759489
Epoch Year2018
RAAN347.0582
Inclination51.648
Eccentricity0.0008386
Argument of Perigee36.1112
Mean Anonmoly324.0429
Mean Motion15.61841196
Decay Rate0.00072253
L11 43621U 98067PM 18318.54759489 .00072253 00000-0 81404-3 0 9997
L22 43621 51.6480 347.0582 0008386 36.1112 324.0429 15.61841196 9140

Live tracking and technical data element details for DEBRISSAT-1 (NORAD 43621). DEBRISSAT-1 can be tracked NOW for your location showing map with azimuth and elevation plus other details from your city location.

Track the satellite on the map from your city or location and see movement details for azimuth, elevation, latitude, longitude, range, height, and movement on the map or in text.







IsCatalogInMostPopularTable: catalog: 43621, numindb: 18
Update: records affected: 1



GetName: 43621 DEBRISSAT-1

Hit Count: updated at: Fri, 16 Nov 2018 03:33:13 GMT